AirNav   TITAN Aviation Fuels
 
 781 users online  

KNRS Imperial Beach Naval Outlying Field (Ream Field)
Imperial Beach, California, USA

GOING TO IMPERIAL BEACH?


FAA INFORMATION EFFECTIVE 08 SEPTEMBER 2022

Location

FAA Identifier: NRS
Lat/Long: 32-33-58.1746N 117-06-48.6918W
32-33.969577N 117-06.811530W
32.5661596,-117.1135255
(estimated)
Elevation: 23.2 ft. / 7.1 m (surveyed)
Variation: 11E (2020)
From city: 1 mile S of IMPERIAL BEACH, CA
Time zone: UTC -7 (UTC -8 during Standard Time)
Zip code: 91932

Airport Operations

Airport use: Private use. Permission required prior to landing
Activation date: 02/1944
Control tower: yes
ARTCC: LOS ANGELES CENTER
FSS: SAN DIEGO FLIGHT SERVICE STATION
FSS-SAN DIEGO SAN-NOTAM NRS
NOTAMs facility: SAN (NOTAM-D service available)
Attendance: 
OPR 1600-0630Z MON-THU (1500-0600Z DT) AND 1600-0200Z++ FRI. CLSD FR 0200Z++ DAY PRIOR TIL 1600Z++ DAY FLW GOVT HOL; EXC PRE-COORD FLT OF OPR NECESSITY. CTC NOLF ATC DSN 577-9414/9415 FOR OPR INQUIRIES.
Segmented circle: no
Lights: AVBL ONLY DURING HRS OF OPERATION.
Beacon: white-white-green (lighted military airport)
Operates sunset to sunrise.

Airport Communications

ATIS: 276.2
WX ASOS: PHONE 619-437-9890
IMPERIAL BEACH GROUND: 285.575 [1600-0630Z MON-THU (1500-0600Z DT) AND 1600-0200Z++ FRI. CLSD FR 0200Z++ DAY PRIOR TIL 1600Z++ DAY FLW GOVT HOL.]
IMPERIAL BEACH TOWER: 120.65 239.25 [1600-0630Z MON-THU (1500-0600Z DT) AND 1600-0200Z++ FRI. CLSD FR 0200Z++ DAY PRIOR TIL 1600Z++ DAY FLW GOVT HOL.]
SOCAL APPROACH: 125.15
SOCAL DEPARTURE: 125.15
CLASS B: 125.15 ;110-224 SAN 17,000 FT& BLW
EMERG: 243.0
RADAR: 318.8
WX ASOS at SDM (7 nm E): 132.35 (619-661-8297)
WX ASOS at SAN (11 nm N): PHONE 619-296-8934
WX ASOS at MYF (15 nm N): 126.9 (858-576-4337)
WX AWOS-3P at SEE (17 nm NE): 125.45 (619-449-1228)
  • ATCT/GCA/ATIS OPR PUBLISHED HRS EXC PRE-COORD FLT OF OPR NECESSITY.
  • ILS/RADAR - RADAR - SEE TERMINAL FLIP FOR RADAR MINIMA.

Nearby radio navigation aids

VOR radial/distance  VOR name  Freq  Var
PGYr235/7.3POGGI VORTAC116.4514E
TIJr269/8.3TIJUANA VOR/DME116.5012E
MZBr141/14.1MISSION BAY VORTAC117.8015E

Airport Services

Runway Information

Runway 8/26

Dimensions: 2241 x 151 ft. / 683 x 46 m
Surface: concrete
Weight bearing capacity: 
PCN 6 /R/C/W/T
RUNWAY 8  RUNWAY 26
Latitude: 32-34.018148N32-33.921508N
Longitude: 117-06.828138W117-06.406907W
Elevation: 23.2 ft.20.9 ft.
Traffic pattern: leftleft
Touchdown point: yes, no lightsyes, no lights

Runway 9/27

Dimensions: 4998 x 336 ft. / 1523 x 102 m
Surface: PEM
Weight bearing capacity: 
PCN 8 /F/A/W/T
Runway edge lights: high intensity
RUNWAY 9  RUNWAY 27
Latitude: 32-34.076963N32-33.861963N
Longitude: 117-07.368352W117-06.428678W
Elevation: 7.8 ft.19.5 ft.
Traffic pattern: leftleft
Touchdown point: yes, no lightsyes, no lights

Airport Ownership and Management from official FAA records

Ownership: U.S. Navy
Owner: US NAVY
OCEANOGRAPHIC OFC - CODE 3142
WASHINGTON, DC 20373

Additional Remarks

RSTD - OFFL BUS ONLY - PPR F/W AND NON-TENANT ACFT, CTC NASNI ODO DSN 735-8233/8234, C619-545-8233/8234. NORTH ISLAND TENANT ACFT AND COAST GUARD HAVE PRIORITY FOR LCL PAT OPR.
CAUTION: EXTV COPTER TRNG.
MISC: RWY 08-26 AVBL FOR DAY AND NGT COPTER USE ONLY (NGT AND SVFR USE AT PILOTS OWN RISK).
FUEL: J5 (AVAILABLE 1100-2100 MON-THU; 1000-1800 FRI).
FOR CD WHEN ATCT CLSD CTC SOCAL APCH AT 800-448-3724.

Instrument Procedures

NOTE: All procedures below are presented as PDF files. If you need a reader for these files, you should download the free Adobe Reader.

NOT FOR NAVIGATION. Please procure official charts for flight.
FAA instrument procedures published for use from 8 September 2022 at 0901Z to 6 October 2022 at 0900Z.

 
IAPs - Instrument Approach Procedures
COPTER TACAN RWY 27 **CHANGED**   download (118KB)
NOTE: Special Take-Off Minimums/Departure Procedures apply   download (174KB)

Other nearby airports with instrument procedures:

KSDM - Brown Field Municipal Airport (7 nm E)
KNZY - North Island Naval Air Station (Halsey Field) Airport (9 nm NW)
KSAN - San Diego International Airport (11 nm N)
KMYF - Montgomery-Gibbs Executive Airport (15 nm N)
KSEE - Gillespie Field Airport (17 nm NE)
KNKX - Miramar MCAS (Joe Foss Field) Airport (18 nm N)
 
Loc | Ops | Rwys | IFR | FBO | Links
Com | Nav | Svcs | Stats | Notes
Area around KNRS (Imperial Beach Naval Outlying Field (Ream Field))
 
Road maps at: MapQuest Bing Google
 
Aerial photo
WARNING: Photo may not be current or correct
Aerial photo of KNRS (Imperial Beach Naval Outlying Field (Ream Field))
Photo taken 02-Feb-2016
looking south.

Do you have a better or more recent aerial photo of Imperial Beach Naval Outlying Field (Ream Field) that you would like to share? If so, please send us your photo.

 
Sectional chart

 
Airport distance calculator
Flying to Imperial Beach Naval Outlying Field (Ream Field)? Find the distance to fly.

From to KNRS

Sunrise and sunset
Times for 05-Oct-2022
 Local
(UTC-7)
 Zulu
(UTC)
Morning civil twilight06:2213:22
Sunrise06:4613:46
Sunset18:2701:27
Evening civil twilight18:5201:52

Current date and time
Zulu (UTC)  06-Oct-2022 03:56:14
Local (UTC-7)  05-Oct-2022 20:56:14
 
METAR
KNRS 060253Z 23004KT 9SM OVC007 19/17 A2998 RMK AO2 SLP153 T01890167 53011
KSDM 
6nm E 
060253Z VRB03KT 6SM BR OVC007 18/16 A2998 RMK AO2 SLP149 T01830161 53011
MMTJ 
8nm E 
060242Z 26004KT 5SM OVC008 19/17 A3001 RMK SLP184 52020 940 8/6// HZY
KNZY 
10nm NW 
060252Z 17006KT 8SM OVC012 19/17 A2997 RMK AO2 SLP149 T01890167 53012
KSAN 
11nm N 
060251Z 18005KT 8SM OVC011 19/17 A2999 RMK AO2 SLP156 T01940167 53013
KMYF 
15nm N 
060253Z 00000KT 6SM BR OVC007 19/17 A2998 RMK AO2 SLP149 T01890167 53013
KSEE 
17nm NE 
060247Z 00000KT 4SM BR OVC013 20/17 A2999
KNKX 
18nm N 
060255Z 24003KT 9SM OVC008 19/17 A2998 RMK AO2 SLP146 T01890172 53011
TAF
MMTJ 
8nm E 
051703Z 0518/0624 00000KT 4SM HZ BKN012 TX22/0519Z TN18/0612Z FM052000 30008KT 6SM HZ SCT018 FM060600 30006KT 6SM HZ BKN012 FM060800 00000KT 4SM HZ BKN008 TEMPO 0611/0615 2SM BR HZ OVC005 FM061800 00000KT 5SM HZ SCT015
KNZY 
10nm NW 
0523/0623 21006KT 9000 HZ OVC010 QNH2990INS TEMPO 0523/0605 OVC008 FM060600 VRB04KT 6000 BR OVC006 QNH2992INS BECMG 0616/0618 25008KT 8000 BR BKN012 QNH2995INS TEMPO 0619/0623 VRB04KT 9999 SCT012 T18/0612Z T23/0621Z AMD 2320 FS30160
KSAN 
11nm N 
052010Z 0520/0624 26006KT P6SM BKN010 BKN050 TEMPO 0523/0602 SCT012 FM060200 21005KT P6SM OVC012 FM060900 VRB04KT 6SM BR OVC009 TEMPO 0612/0616 5SM BR OVC008 FM061800 24005KT P6SM OVC011 TEMPO 0621/0624 SCT012
KNKX 
18nm N 
0522/0621 27006KT 9999 BKN009 QNH2992INS BECMG 0601/0603 VRB05KT 8000 OVC007 QNH2996INS TEMPO 0608/0613 6000 BR OVC004 FM061930 27008KT 9999 FEW010 QNH2997INS T18/0615Z T25/0620Z AMD 2250
NOTAMs
Click for the latest NOTAMs
NOTAMs are issued by the DoD/FAA and will open in a separate window not controlled by AirNav.

 

 
 

Would you like to see your business listed on this page?

 If your business provides an interesting product or service to pilots, flight crews, aircraft, or users of the Imperial Beach Naval Outlying Field (Ream Field), you should consider listing it here.  To start the listing process, click on the button below
 
Add a business
 

Other Pages about Imperial Beach Naval Outlying Field (Ream Field)

Update a link
 
Copyright © AirNav, LLC. All rights reserved. Privacy Policy  Contact